Volver al catálogo

FENGYUN 1C DEB

ActivoSSO
NORAD 29754·DEBRIS·🇨🇳 China

Lanzado May 10, 1999 desde Taiyuan Satellite Launch Center

Loading…

Próximos Pases (próximas 24 horas)

TLE

ActualizadoSource: Space-Track

Época: Sep 14, 2026, 13:30 UTC

1 29754U 99025AU  26257.56311809  .00001263  00000-0  61051-3 0  9995
2 29754  98.8945   6.2931 0036443 169.3965 202.9396 14.20042702 12547

Sigue FENGYUN 1C DEB en tiempo real con AllMySat

Download on the App Store